This is the latest recevied weather packets stored in our database for station/object N4OOJ-13. If no packets are shown the sender has not sent any weather packets the latest 10 day(s).
| Time | Temp. | Humidity | Pressure | Rain* | Wind** | Luminosity | Snow |
|---|---|---|---|---|---|---|---|
| 1777892418 | 6.67° C | 99% | 1020 hPa | 0 mm | - | - | - |
| 1777891831 | 6.67° C | 99% | 1019.9 hPa | 0 mm | - | - | - |
| 1777891226 | 6.67° C | 99% | 1019.8 hPa | 0 mm | - | - | - |
| 1777890624 | 6.11° C | 99% | 1019.9 hPa | 0 mm | - | - | - |
| 1777890017 | 6.11° C | 99% | 1019.8 hPa | 0 mm | - | - | - |
| 1777889424 | 6.67° C | 99% | 1019.8 hPa | 0 mm | - | - | - |
| 1777888818 | 6.67° C | 99% | 1019.8 hPa | 0 mm | - | - | - |
| 1777888219 | 6.67° C | 99% | 1019.7 hPa | 0 mm | - | - | - |
| 1777887618 | 6.67° C | 99% | 1019.8 hPa | 0 mm | - | - | - |
| 1777887017 | 7.22° C | 99% | 1019.7 hPa | 0 mm | - | - | - |
| 1777886431 | 7.22° C | 99% | 1019.8 hPa | 0 mm | - | - | - |
| 1777885830 | 7.22° C | 99% | 1019.8 hPa | 0 mm | - | - | - |
| 1777885225 | 7.22° C | 99% | 1019.8 hPa | 0 mm | - | - | - |
| 1777884619 | 7.22° C | 99% | 1019.8 hPa | 0 mm | - | - | - |
| 1777884017 | 7.22° C | 99% | 1019.8 hPa | 0 mm | - | - | - |
| 1777883423 | 7.78° C | 99% | 1020 hPa | 0 mm | - | - | - |
| 1777882819 | 7.78° C | 99% | 1020 hPa | 0 mm | - | - | - |
| 1777882219 | 7.78° C | 99% | 1020.2 hPa | 0 mm | - | - | - |
| 1777881631 | 7.78° C | 99% | 1020.2 hPa | 0 mm | - | - | - |
| 1777881032 | 8.33° C | 99% | 1020.2 hPa | 0 mm | - | - | - |
| 1777880427 | 7.78° C | 99% | 1020.4 hPa | 0 mm | - | - | - |
| 1777879820 | 7.78° C | 99% | 1020.4 hPa | 0 mm | - | - | - |
| 1777879232 | 8.33° C | 99% | 1020.4 hPa | 0 mm | - | - | - |
| 1777878626 | 8.33° C | 99% | 1020.4 hPa | 0 mm | - | - | - |
| 1777878021 | 8.33° C | 99% | 1020.4 hPa | 0 mm | - | - | - |
* Rain latest hour (hover to see other rain measurements)
** Current wind speed in m/s (hover to see current wind gust speed)